GW4824 Weather Reports


Display with metric or nautical units.
time (UTC)temp
F
wind
direction
speed
MPH
gust
MPH
rain 1hr
in
rain 24hr
in
rain mn
in
humidity
%
barometer
mb
20260508105829 41 118 0.0 0.0 0.00 0.00 0.00 91 1012.5
20260508105325 41 102 0.0 0.0 0.00 0.00 0.00 90 1012.6
20260508104822 41 113 0.0 0.0 0.00 0.00 0.00 90 1012.5
20260508104319 41 96 0.0 0.0 0.00 0.00 0.00 90 1012.2
20260508103816 41 103 0.0 0.0 0.00 0.00 0.00 89 1012.5
20260508103313 41 97 0.0 0.0 0.00 0.00 0.00 88 1012.4
20260508102811 42 97 0.0 0.0 0.00 0.00 0.00 88 1012.3
20260508102309 41 97 0.0 0.0 0.00 0.00 0.00 89 1012.3
20260508101806 42 105 0.0 0.0 0.00 0.00 0.00 89 1012.1
20260508101303 42 116 0.0 0.0 0.00 0.00 0.00 89 1012.2
20260508100800 42 109 0.0 0.0 0.00 0.00 0.00 88 1012.1
20260508100259 42 93 0.0 0.0 0.00 0.00 0.00 89 1012.2
20260508095754 42 116 0.0 0.0 0.00 0.00 0.00 89 1012.2
20260508095252 42 92 0.0 0.0 0.00 0.00 0.00 90 1012.2
20260508094749 42 107 0.0 0.0 0.00 0.00 0.00 89 1012.4
20260508094246 42 104 0.0 0.0 0.00 0.00 0.00 89 1012.4
20260508093743 42 99 0.0 0.0 0.00 0.00 0.00 88 1012.4
20260508093240 42 112 0.0 0.0 0.00 0.00 0.00 88 1012.4
20260508092737 42 103 0.0 0.0 0.00 0.00 0.00 87 1012.4
20260508092236 42 102 0.0 0.0 0.00 0.00 0.00 88 1012.5
20260508091733 42 111 0.0 0.0 0.00 0.00 0.00 88 1012.5
20260508091230 42 117 0.0 0.0 0.00 0.00 0.00 88 1012.4
20260508090728 42 94 0.0 0.0 0.00 0.00 0.00 88 1012.5
20260508090225 42 113 0.0 0.0 0.00 0.00 0.00 87 1012.3
20260508085721 42 107 0.0 0.0 0.00 0.00 0.00 86 1012.5
20260508085218 42 96 0.0 0.0 0.00 0.00 0.00 86 1012.6
20260508084714 43 98 0.0 0.0 0.00 0.00 0.00 86 1012.5
20260508084212 43 106 0.0 0.0 0.00 0.00 0.00 86 1012.5
20260508083709 43 106 0.0 0.0 0.00 0.00 0.00 86 1012.4
20260508083207 43 111 0.0 0.0 0.00 0.00 0.00 85 1012.3
20260508082701 44 110 0.0 0.0 0.00 0.00 0.00 85 1012.4
20260508082159 44 111 0.0 0.0 0.00 0.00 0.00 86 1012.4
20260508081657 45 105 0.0 0.0 0.00 0.00 0.00 85 1012.2
20260508081153 45 119 0.0 0.0 0.00 0.00 0.00 85 1012.5
20260508080650 45 99 0.0 0.0 0.00 0.00 0.00 82 1012.5
20260508080148 46 109 0.0 0.0 0.00 0.00 0.00 82 1012.6
20260508075644 46 96 0.0 0.0 0.00 0.00 0.00 84 1012.9
20260508075142 46 93 0.0 0.0 0.00 0.00 0.00 79 1012.8
20260508074639 46 84 0.0 0.0 0.00 0.00 0.00 77 1012.8
20260508074136 46 89 0.0 0.0 0.00 0.00 0.00 78 1012.5
20260508073633 47 105 0.0 0.0 0.00 0.00 0.00 79 1012.5
20260508073131 47 105 0.0 0.0 0.00 0.00 0.00 77 1012.8
20260508072626 47 105 0.0 0.0 0.00 0.00 0.00 79 1012.8
20260508072124 47 105 0.0 0.0 0.00 0.00 0.00 77 1012.9
20260508071621 46 103 0.0 0.0 0.00 0.00 0.00 78 1013.0
20260508071120 46 94 0.0 0.0 0.00 0.00 0.00 80 1013.2
20260508070617 46 97 0.0 0.0 0.00 0.00 0.00 81 1013.2
20260508070115 46 80 0.0 0.0 0.00 0.00 0.00 79 1013.1
20260508065612 46 141 1.0 1.0 0.00 0.00 0.00 78 1013.3
20260508065110 47 148 1.0 1.0 0.00 0.00 0.00 77 1013.5
20260508064607 46 128 0.0 0.0 0.00 0.00 0.00 76 1013.5
20260508064105 46 118 0.0 0.0 0.00 0.00 0.00 78 1013.5
20260508063602 46 96 0.0 0.0 0.00 0.00 0.00 77 1013.4
20260508063100 46 140 0.0 1.0 0.00 0.00 0.00 78 1013.4
20260508062557 46 136 0.0 1.0 0.00 0.00 0.00 78 1013.4
20260508062054 46 137 1.0 1.0 0.00 0.00 0.00 79 1013.3
20260508061552 46 91 0.0 0.0 0.00 0.00 0.00 80 1013.6
20260508061048 46 84 0.0 0.0 0.00 0.00 0.00 78 1013.7
20260508060545 46 104 0.0 0.0 0.00 0.00 0.00 78 1013.8
20260508060043 46 111 0.0 0.0 0.00 0.00 0.00 76 1013.7
20260508055538 46 75 0.0 0.0 0.00 0.00 0.00 74 1013.4
20260508055035 46 91 0.0 0.0 0.00 0.00 0.00 72 1013.4
20260508054532 46 86 0.0 0.0 0.00 0.00 0.00 72 1013.3
20260508054029 46 104 0.0 0.0 0.00 0.00 0.00 72 1013.0
20260508053525 46 113 0.0 0.0 0.00 0.00 0.00 78 1013.2
20260508053024 46 103 0.0 0.0 0.00 0.00 0.00 78 1013.1
20260508052521 46 87 0.0 0.0 0.00 0.00 0.00 80 1013.0
20260508052018 46 104 0.0 0.0 0.00 0.00 0.00 72 1013.1
20260508051514 46 98 0.0 0.0 0.00 0.00 0.00 69 1013.2
20260508051009 46 75 0.0 0.0 0.00 0.00 0.00 71 1013.3
20260508050506 46 103 0.0 0.0 0.00 0.00 0.00 76 1013.0
20260508050003 45 108 0.0 0.0 0.00 0.00 0.00 75 1012.9
20260508045459 45 101 0.0 0.0 0.00 0.00 0.00 76 1013.2
20260508044957 45 108 0.0 0.0 0.00 0.00 0.00 77 1013.1
20260508044454 45 104 0.0 0.0 0.00 0.00 0.00 76 1013.2
20260508043949 45 102 0.0 0.0 0.00 0.00 0.00 73 1013.3
20260508043447 44 97 0.0 0.0 0.00 0.00 0.00 73 1013.2
20260508042943 44 101 0.0 0.0 0.00 0.00 0.00 73 1013.4
20260508042441 44 101 0.0 0.0 0.00 0.00 0.00 74 1013.4
20260508041937 44 101 0.0 0.0 0.00 0.00 0.00 76 1013.3
20260508041434 44 105 0.0 0.0 0.00 0.00 0.00 76 1013.4
20260508040931 44 108 0.0 0.0 0.00 0.00 0.00 75 1013.3
20260508040428 45 100 0.0 0.0 0.00 0.00 0.00 73 1013.3
20260508035926 46 101 0.0 0.0 0.00 0.00 0.00 74 1013.1
20260508035422 46 111 0.0 0.0 0.00 0.00 0.00 76 1013.2
20260508034919 46 90 0.0 0.0 0.00 0.00 0.00 70 1013.4
20260508034417 47 105 0.0 0.0 0.00 0.00 0.00 77 1013.6
20260508033913 47 97 0.0 0.0 0.00 0.00 0.00 75 1013.6
20260508033412 46 96 0.0 0.0 0.00 0.00 0.00 70 1013.6
20260508032909 47 97 0.0 0.0 0.00 0.00 0.00 78 1013.5
20260508032406 47 90 0.0 0.0 0.00 0.00 0.00 66 1013.4
20260508031903 46 92 0.0 0.0 0.00 0.00 0.00 66 1013.2
20260508031400 46 88 0.0 0.0 0.00 0.00 0.00 64 1013.1
20260508030855 46 97 0.0 0.0 0.00 0.00 0.00 62 1013.3
20260508030353 46 97 0.0 0.0 0.00 0.00 0.00 62 1013.2
20260508025850 46 93 0.0 0.0 0.00 0.00 0.00 62 1013.3
20260508025347 46 94 0.0 0.0 0.00 0.00 0.00 67 1013.2
20260508024843 46 84 0.0 0.0 0.00 0.00 0.00 70 1013.3
20260508024340 46 98 0.0 0.0 0.00 0.00 0.00 64 1013.3
20260508023837 46 101 0.0 0.0 0.00 0.00 0.00 65 1013.3
20260508023334 46 95 0.0 0.0 0.00 0.00 0.00 64 1013.3
20260508022831 46 103 0.0 0.0 0.00 0.00 0.00 65 1013.1
20260508022326 46 107 0.0 0.0 0.00 0.00 0.00 62 1013.5
20260508021823 46 86 0.0 0.0 0.00 0.00 0.00 61 1013.3
20260508021319 46 101 0.0 0.0 0.00 0.00 0.00 62 1013.4
20260508020816 46 101 0.0 0.0 0.00 0.00 0.00 63 1013.3
20260508020314 46 88 0.0 0.0 0.00 0.00 0.00 62 1013.2
20260508015810 46 96 0.0 0.0 0.00 0.00 0.00 62 1013.2
20260508015308 46 93 0.0 0.0 0.00 0.00 0.00 63 1013.2
20260508014804 46 67 0.0 1.0 0.00 0.00 0.00 64 1013.3
20260508014302 46 102 0.0 0.0 0.00 0.00 0.00 62 1013.2
20260508013757 46 102 0.0 0.0 0.00 0.00 0.00 62 1013.1
20260508013254 46 103 0.0 0.0 0.00 0.00 0.00 64 1013.1
20260508012751 46 103 0.0 0.0 0.00 0.00 0.00 64 1013.2
20260508012248 46 103 0.0 0.0 0.00 0.00 0.00 63 1013.2
20260508011746 46 103 0.0 0.0 0.00 0.00 0.00 64 1013.0
20260508011243 46 103 0.0 0.0 0.00 0.00 0.00 64 1013.0
20260508010740 46 103 0.0 0.0 0.00 0.00 0.00 64 1013.1
20260508010238 47 103 0.0 0.0 0.00 0.00 0.00 60 1012.9
20260508005735 47 100 0.0 0.0 0.00 0.00 0.00 59 1012.8
20260508005232 48 100 0.0 0.0 0.00 0.00 0.00 58 1013.0
20260508004727 48 104 0.0 0.0 0.00 0.00 0.00 57 1012.8
20260508004224 48 105 0.0 0.0 0.00 0.00 0.00 55 1012.8
20260508003720 49 101 0.0 0.0 0.00 0.00 0.00 57 1012.6
20260508003218 49 100 0.0 0.0 0.00 0.00 0.00 55 1012.9
20260508002714 50 94 0.0 0.0 0.00 0.00 0.00 56 1012.8
20260508002212 50 98 0.0 0.0 0.00 0.00 0.00 56 1012.5
20260508001707 50 112 0.0 0.0 0.00 0.00 0.00 56 1012.5
20260508001203 51 113 0.0 0.0 0.00 0.00 0.00 57 1012.6
20260508000659 51 113 0.0 0.0 0.00 0.00 0.00 56 1012.6
20260508000157 51 102 0.0 0.0 0.00 0.00 0.00 53 1012.4
20260507235653 51 91 0.0 0.0 0.00 0.00 0.00 53 1012.4
20260507235151 52 104 0.0 0.0 0.00 0.00 0.00 50 1012.3
20260507234648 52 111 0.0 0.0 0.00 0.00 0.00 54 1012.2
20260507234144 52 98 0.0 0.0 0.00 0.00 0.00 57 1012.3
20260507233641 53 22 1.0 1.0 0.00 0.00 0.00 50 1012.2
20260507233139 53 98 0.0 0.0 0.00 0.00 0.00 50 1012.3
20260507232635 53 109 0.0 0.0 0.00 0.00 0.00 51 1012.3
20260507232132 53 105 0.0 0.0 0.00 0.00 0.00 49 1012.3
20260507231629 53 80 0.0 0.0 0.00 0.00 0.00 49 1012.1
20260507231126 54 90 0.0 0.0 0.00 0.00 0.00 51 1012.4
20260507230622 54 258 2.0 2.0 0.00 0.00 0.00 49 1012.3
20260507230119 54 121 1.0 1.0 0.00 0.00 0.00 45 1012.5
20260507225614 54 103 1.0 1.0 0.00 0.00 0.00 54 1012.3
20260507225111 55 297 1.0 2.0 0.00 0.00 0.00 48 1012.3
20260507224606 55 84 1.0 2.0 0.00 0.00 0.00 45 1012.4
20260507224103 55 0 1.0 1.0 0.00 0.00 0.00 45 1012.2
20260507223559 55 329 2.0 2.0 0.00 0.00 0.00 47 1012.6
20260507223056 55 115 0.0 1.0 0.00 0.00 0.00 46 1012.5
20260507222554 55 91 1.0 1.0 0.00 0.00 0.00 44 1012.5
20260507222050 55 136 1.0 1.0 0.00 0.00 0.00 44 1012.6
20260507221547 55 177 2.0 2.0 0.00 0.00 0.00 43 1012.6
20260507221044 56 213 2.0 3.0 0.00 0.00 0.00 41 1012.4
20260507220540 56 111 1.0 1.0 0.00 0.00 0.00 44 1012.6
20260507220038 55 91 2.0 3.0 0.00 0.00 0.00 43 1012.4
20260507215534 56 255 2.0 3.0 0.00 0.00 0.00 40 1012.2
20260507215032 56 94 1.0 1.0 0.00 0.00 0.00 42 1012.3
20260507214529 56 23 1.0 1.0 0.00 0.00 0.00 48 1012.3
20260507214025 55 56 1.0 1.0 0.00 0.00 0.00 42 1012.3
20260507213521 55 308 3.0 4.0 0.00 0.00 0.00 43 1012.1
20260507213018 57 290 2.0 3.0 0.00 0.00 0.00 43 1012.3
20260507212514 56 283 3.0 3.0 0.00 0.00 0.00 45 1012.2
20260507212011 56 217 3.0 3.0 0.00 0.00 0.00 41 1012.1
20260507211508 56 69 4.0 6.0 0.00 0.00 0.00 43 1012.1
20260507211004 55 96 1.0 1.0 0.00 0.00 0.00 48 1012.0
20260507210501 56 156 1.0 2.0 0.00 0.00 0.00 43 1012.0
20260507205958 55 251 2.0 3.0 0.00 0.00 0.00 45 1012.1
20260507205455 55 147 1.0 1.0 0.00 0.00 0.00 53 1012.1
20260507204951 56 204 1.0 2.0 0.00 0.00 0.00 45 1012.1
20260507204448 57 77 3.0 4.0 0.00 0.00 0.00 44 1012.1
20260507203945 59 266 2.0 2.0 0.00 0.00 0.00 42 1012.1
20260507203443 59 119 2.0 3.0 0.00 0.00 0.00 40 1011.8
20260507202939 58 272 3.0 6.0 0.00 0.00 0.00 43 1012.2
20260507202436 58 324 2.0 3.0 0.00 0.00 0.00 39 1012.2
20260507201932 58 190 1.0 1.0 0.00 0.00 0.00 42 1012.1
20260507201432 58 251 3.0 4.0 0.00 0.00 0.00 43 1012.3
20260507200929 58 58 2.0 2.0 0.00 0.00 0.00 42 1012.0
20260507200425 56 293 2.0 3.0 0.00 0.00 0.00 45 1012.1
20260507195921 58 334 2.0 4.0 0.00 0.00 0.00 43 1012.0
20260507195419 59 298 2.0 3.0 0.00 0.00 0.00 44 1012.2
20260507194916 57 92 0.0 1.0 0.00 0.00 0.00 44 1012.3
20260507194412 58 29 2.0 2.0 0.00 0.00 0.00 46 1012.2
20260507193909 58 94 1.0 2.0 0.00 0.00 0.00 44 1012.2
20260507193406 59 333 3.0 4.0 0.00 0.00 0.00 48 1012.0
20260507192902 59 63 2.0 2.0 0.00 0.00 0.00 45 1012.3
20260507192358 58 176 3.0 4.0 0.00 0.00 0.00 47 1012.2
20260507191855 57 299 2.0 2.0 0.00 0.00 0.00 48 1012.3
20260507191351 58 123 2.0 2.0 0.00 0.00 0.00 48 1012.4
20260507190848 57 71 1.0 1.0 0.00 0.00 0.00 52 1012.3
20260507190346 58 89 1.0 2.0 0.00 0.00 0.00 47 1012.4
20260507185845 58 346 3.0 4.0 0.00 0.00 0.00 50 1012.2
20260507185342 58 43 3.0 4.0 0.00 0.00 0.00 49 1012.4
20260507184839 57 146 2.0 2.0 0.00 0.00 0.00 47 1012.4
20260507184337 56 293 2.0 2.0 0.00 0.00 0.00 50 1012.4
20260507183833 58 177 1.0 2.0 0.00 0.00 0.00 47 1012.5
20260507183330 56 205 2.0 2.0 0.00 0.00 0.00 50 1012.4
20260507182828 57 269 2.0 3.0 0.00 0.00 0.00 48 1012.5
20260507182323 57 132 1.0 1.0 0.00 0.00 0.00 46 1012.3
20260507181820 57 127 0.0 0.0 0.00 0.00 0.00 53 1012.4
20260507181316 57 199 1.0 1.0 0.00 0.00 0.00 49 1012.4
20260507180813 58 186 0.0 1.0 0.00 0.00 0.00 46 1012.4
20260507180310 58 194 1.0 1.0 0.00 0.00 0.00 49 1012.4
20260507175805 58 144 1.0 1.0 0.00 0.00 0.00 47 1012.3
20260507175306 57 242 2.0 4.0 0.00 0.00 0.00 47 1012.5
20260507174759 57 256 2.0 2.0 0.00 0.00 0.00 53 1012.5
20260507174257 57 82 0.0 0.0 0.00 0.00 0.00 46 1012.8
20260507173755 57 64 3.0 3.0 0.00 0.00 0.00 47 1012.8
20260507173252 56 166 2.0 3.0 0.00 0.00 0.00 47 1013.1
20260507172748 58 294 2.0 3.0 0.00 0.00 0.00 50 1012.8
20260507172245 56 343 2.0 4.0 0.00 0.00 0.00 47 1012.9
20260507171740 57 123 2.0 2.0 0.00 0.00 0.00 50 1012.9
20260507171238 56 195 2.0 3.0 0.00 0.00 0.00 53 1012.8
20260507170735 56 197 2.0 3.0 0.00 0.00 0.00 47 1012.9
20260507170231 56 181 1.0 2.0 0.00 0.00 0.00 48 1012.9
20260507165727 56 135 1.0 2.0 0.00 0.00 0.00 46 1012.8
20260507165223 57 310 1.0 1.0 0.00 0.00 0.00 47 1012.9
20260507164719 56 244 2.0 3.0 0.00 0.00 0.00 47 1013.0
20260507164217 57 185 3.0 4.0 0.00 0.00 0.00 46 1013.0
20260507163714 56 288 2.0 2.0 0.00 0.00 0.00 47 1013.0
20260507163212 56 193 2.0 3.0 0.00 0.00 0.00 47 1013.1
20260507162707 56 146 1.0 1.0 0.00 0.00 0.00 50 1012.9
20260507162203 55 165 1.0 1.0 0.00 0.00 0.00 58 1013.0
20260507161700 55 272 1.0 2.0 0.00 0.00 0.00 45 1013.0
20260507161156 56 137 1.0 2.0 0.00 0.00 0.00 55 1013.0
20260507160653 58 102 2.0 2.0 0.00 0.00 0.00 46 1012.9
20260507160150 56 41 2.0 2.0 0.00 0.00 0.00 47 1012.9
20260507155645 55 122 2.0 3.0 0.00 0.00 0.00 48 1012.8
20260507155142 56 252 2.0 2.0 0.00 0.00 0.00 44 1013.0
20260507154638 56 169 1.0 2.0 0.00 0.00 0.00 46 1012.9
20260507154136 54 49 1.0 2.0 0.00 0.00 0.00 47 1013.0
20260507153632 54 166 1.0 1.0 0.00 0.00 0.00 52 1012.8
20260507153129 55 132 1.0 2.0 0.00 0.00 0.00 50 1012.9
20260507152625 55 197 2.0 3.0 0.00 0.00 0.00 49 1012.9
20260507152121 55 246 1.0 2.0 0.00 0.00 0.00 56 1012.9
20260507151617 55 166 1.0 2.0 0.00 0.00 0.00 56 1012.9
20260507151115 55 114 1.0 2.0 0.00 0.00 0.00 54 1013.0
20260507150612 54 205 2.0 2.0 0.00 0.00 0.00 55 1012.6
20260507150108 53 112 2.0 2.0 0.00 0.00 0.00 54 1012.8
20260507145604 54 336 2.0 2.0 0.00 0.00 0.00 53 1013.0
20260507145102 54 90 1.0 1.0 0.00 0.00 0.00 57 1013.0
20260507144557 54 301 2.0 3.0 0.00 0.00 0.00 53 1013.2
20260507144056 53 96 1.0 1.0 0.00 0.00 0.00 55 1013.0
20260507143547 53 249 1.0 2.0 0.00 0.00 0.00 58 1013.2
20260507143045 54 106 0.0 1.0 0.00 0.00 0.00 63 1013.1
20260507142544 53 45 1.0 1.0 0.00 0.00 0.00 56 1012.9
20260507142042 52 176 1.0 2.0 0.00 0.00 0.00 60 1013.1
20260507141538 51 87 1.0 1.0 0.00 0.00 0.00 60 1013.3
20260507141035 51 121 1.0 2.0 0.00 0.00 0.00 59 1013.2
20260507140531 50 96 1.0 1.0 0.00 0.00 0.00 63 1013.2
20260507140029 51 104 2.0 2.0 0.00 0.00 0.00 60 1013.3
20260507135525 51 106 0.0 0.0 0.00 0.00 0.00 66 1013.1
20260507135023 51 132 0.0 1.0 0.00 0.00 0.00 68 1013.4
20260507134519 50 307 1.0 2.0 0.00 0.00 0.00 65 1013.5
20260507134015 50 43 1.0 1.0 0.00 0.00 0.00 66 1013.4
20260507133511 51 284 1.0 1.0 0.00 0.00 0.00 68 1013.3
20260507133010 50 101 0.0 1.0 0.00 0.00 0.00 72 1013.4
20260507132506 49 257 2.0 2.0 0.00 0.00 0.00 68 1013.5
20260507132002 48 49 0.0 1.0 0.00 0.00 0.00 72 1013.5
20260507131459 47 142 1.0 1.0 0.00 0.00 0.00 71 1013.4
20260507130956 47 127 0.0 1.0 0.00 0.00 0.00 73 1013.4
20260507130453 48 114 1.0 1.0 0.00 0.00 0.00 71 1013.4
20260507125952 48 141 1.0 1.0 0.00 0.00 0.00 72 1013.6
20260507125450 47 125 1.0 1.0 0.00 0.00 0.00 73 1013.5
20260507124947 47 99 0.0 0.0 0.00 0.00 0.00 72 1013.4
20260507124443 46 105 0.0 0.0 0.00 0.00 0.00 78 1013.4
20260507123941 46 122 1.0 1.0 0.00 0.00 0.00 78 1013.5
20260507123438 45 219 1.0 2.0 0.00 0.00 0.00 77 1013.5
20260507122935 45 258 1.0 2.0 0.00 0.00 0.00 79 1013.2
20260507122430 45 128 1.0 1.0 0.00 0.00 0.00 78 1013.3
20260507121926 44 114 0.0 0.0 0.00 0.00 0.00 81 1013.2
20260507121422 44 110 0.0 0.0 0.00 0.00 0.00 82 1013.3
20260507120919 44 158 1.0 1.0 0.00 0.00 0.00 83 1013.3
20260507120415 43 146 1.0 1.0 0.00 0.00 0.00 84 1013.2
20260507115911 43 105 0.0 1.0 0.00 0.00 0.00 84 1013.1
20260507115407 42 126 0.0 1.0 0.00 0.00 0.00 87 1013.1
20260507114903 42 94 0.0 0.0 0.00 0.00 0.00 86 1013.1
20260507114400 41 92 0.0 0.0 0.00 0.00 0.00 88 1013.2
20260507113857 41 97 0.0 0.0 0.00 0.00 0.00 91 1013.4
20260507113355 40 114 0.0 0.0 0.00 0.00 0.00 93 1013.3
20260507112852 40 113 0.0 0.0 0.00 0.00 0.00 95 1013.4
20260507112349 39 115 0.0 0.0 0.00 0.00 0.00 96 1013.2
20260507111847 39 114 0.0 0.0 0.00 0.00 0.00 97 1013.0
20260507111343 39 80 0.0 0.0 0.00 0.00 0.00 97 1013.0
20260507110839 39 98 0.0 0.0 0.00 0.00 0.00 97 1013.0
20260507110335 38 100 0.0 0.0 0.00 0.00 0.00 97 1013.1